Weather Roundup
Issued by NWS Chicago, IL

Home | Current Version | Previous Version | Text Only | Print | Product List | Glossary On
Versions: 1 2 3 4 5 6 7 8 9 10 11 12 13 14 15 16 17 18 19 20 21 22 23 24 25 26 27 28 29 30 31 32 33 34 35 36 37 38 39 40 41 42 43 44 45 46 47 48 49 50
000
NZUS59 KLOT 310010
HRRLOT

CHICAGO AREA WEATHER ROUNDUP
NATIONAL WEATHER SERVICE CHICAGO/ROMEOVILLE IL
700 PM CDT SAT AUG 30 2014

NOTE: "FAIR" INDICATES FEW OR NO CLOUDS BELOW 12,000 FEET WITH NO
SIGNIFICANT WEATHER AND/OR OBSTRUCTIONS TO VISIBILITY.

* THESE STATIONS ARE NOT UNDER NWS QUALITY CONTROL. THEY ALSO MAY NOT
  REPORT WEATHER SUCH AS PRECIPITATION OR FOG.

ILZ005-006-012>014-019>023-310100-
NORTHEAST ILLINOIS

CITY           SKY/WX    TMP DP  RH WIND       PRES   REMARKS
OHARE          PTCLDY    80  63  55 W13       29.85R HX  81
6HR MIN TEMP:  80; 6HR MAX TEMP:  83;

MIDWAY         MOCLDY    82  66  58 W8        29.85R HX  84
6HR MIN TEMP:  82; 6HR MAX TEMP:  86;

AURORA         PTCLDY    77  68  73 W3        29.87R
6HR MIN TEMP:  77; 6HR MAX TEMP:  83;

LANSING*         N/A    N/A N/A N/A MISG        N/A
JOLIET*        PTCLDY    81  65  59 W3        29.87S HX  82
WAUKEGAN       CLEAR     77  65  66 VRB6      29.84R
6HR MIN TEMP:  77; 6HR MAX TEMP:  81;

DUPAGE AIRPORT CLEAR     79  66  64 W10       29.86R HX  81
6HR MIN TEMP:  79; 6HR MAX TEMP:  83;

WHEELING       CLEAR     81  64  56 W9        29.86S HX  82
6HR MIN TEMP:  81; 6HR MAX TEMP:  84;

KANKAKEE*      MOCLDY    76  69  79 SW7       29.89S
MORRIS*        PTCLDY    80  70  70 CALM      29.87R HX  84
LEWIS AIRPORT* PTCLDY    78  67  68 W5        29.87R HX  81
NORTHERLY IS     N/A     81  64  56 W6          N/A  HX  82
$$

WIZ051-052-058>065-066-070>072-310100-
SOUTHEAST WISCONSIN

CITY           SKY/WX    TMP DP  RH WIND       PRES   REMARKS
MILWAUKEE      PTCLDY    77  67  71 W7        29.83R
6HR MIN TEMP:  75; 6HR MAX TEMP:  79; 6HR PCP:  0.01;

KENOSHA*       CLEAR     76  67  73 W9        29.84R
RACINE*        PTCLDY    77  67  71 W6        29.85R
BURLINGTON     PTCLDY    74  65  75 SW3       29.85R
WAUKESHA       PTCLDY    73  66  78 W6        29.84R
WEST BEND      MOCLDY    73  64  73 SW3       29.83R
$$

INZ001>003-010>013-019-020-310100-
NORTHWEST INDIANA

CITY           SKY/WX    TMP DP  RH WIND       PRES   REMARKS
GARY*          MOCLDY    79  72  78 SW6       29.86S HX  82
MICHIGAN CITY* NOT AVBL
RENSSELAER*    NOT AVBL
VALPARAISO     CLOUDY    76  69  79 SW9       29.89R
$$

LMZ740>746-310100-
SOUTHERN LAKE MICHIGAN

STATION/POSITION TIME  SKY/WX   TEMP WIND        PRES    VSBY
                                AIR  DIR/SP/G
                 (UTC)          (F)  (DEG/KT/KT) (MB)    (MI)
HARRISON CRIB    0000            79  260/ 14/ 17   N/A
BURNHAM HARBOR   0000            81  240/  7/ 15   N/A
CALUMET HARBOR   0000            82  240/  6/ 11 1009.8F
BURNS HARBOR     NOT AVBL
MICHIGAN CITY    0000            74  190/ 11/ 13   N/A
$$

ABBREVIATIONS USED IN REMARKS
   TC - TEMPERATURE IN CELSIUS
  WCI - WIND CHILL INDEX
   HX - HEAT INDEX
  VSB - VISIBILITY
$$


USA.gov is the U.S. government's official web portal to all federal, state and local government web resources and services.